[[{"header":{"parameterUnit":"m.s-1","parameterCategory":1,"la1":30.2991,"la2":30.254,"lo1":-89.0895,"lo2":-89.0444,"dy":0.0017,"dx":0.0017,"nx":28,"ny":28,"refTime":"2025-04-16T21:00:00:Z","depth":0,"parameterNumber":2,"parameterNumberName":"U-component_of_WINDS"},"data":[0,0,0,0,0,0,0,0,0,0,0,0,0,0,0,0,0,0,0,0,0,0,0,0,0,0,0,0,0,0,0,0,0,0,0,0,0,0,0,0,0,0,0,0,0,0,0,0,0,0,0,0,0,0,0,0,0,0,0.0605,0.0605,0,0.0632,0.0633,0.0633,0.0651,0.0651,0.0651,0.0651,0.0678,0.0679,0.0679,0,0,0,0,0,0,0,0,0,0,0,0,0,0.0567,0.0567,0.0605,0.0605,0.0606,0.0632,0.0633,0.0633,0.0651,0.0651,0.0651,0.0651,0.0678,0.0679,0.0679,0,0,0,0,0,0,0,0,0,0,0,0,0,0.0587,0.0567,0.0605,0.0618,0.0619,0.0632,0.0633,0.0633,0.0651,0.0651,0.0651,0.0651,0.0678,0.0679,0.0679,0.0681,0,0,0.0682,0.0683,0,0,0,0,0,0,0,0,0.0586,0.0589,0.0616,0.0617,0.0619,0.0638,0.0629,0.0649,0.0651,0.0639,0.0651,0.0652,0.0665,0.0667,0.0671,0.0682,0.0684,0.0682,0.0683,0.0683,0.0683,0,0,0,0,0,0,0,0.0585,0.0588,0.0616,0.0616,0.0618,0.0622,0.0625,0.0633,0.065,0.064,0.0641,0.0644,0.0666,0.067,0.0672,0.0684,0.0682,0.0683,0.0684,0.0684,0.0697,0.0696,0,0,0,0,0,0,0.0582,0.0586,0.0615,0.0617,0.0603,0.0622,0.0626,0.0632,0.065,0.0653,0.0644,0.0645,0.0669,0.0671,0.0673,0.0676,0.0683,0.0684,0.0685,0.0697,0.0696,0.0696,0,0,0,0,0,0,0.0581,0.0584,0.0614,0.0602,0.0606,0.0623,0.0629,0.0632,0.0637,0.0654,0.0657,0.0646,0.0669,0.0672,0.0679,0.0677,0.0684,0.0685,0.0697,0.0697,0.0696,0.0681,0,0,0,0,0,0,0.058,0.0584,0.0585,0.0602,0.0607,0.062,0.0629,0.0633,0.0639,0.064,0.0656,0.0659,0.0669,0.0677,0.068,0.0678,0.0686,0.0697,0.0697,0.0696,0.0682,0.068,0.0679,0,0,0,0,0,0.0578,0.058,0.0585,0.0588,0.0609,0.0619,0.0622,0.0635,0.0639,0.064,0.065,0.0658,0.0677,0.0678,0.0681,0.0679,0.0697,0.0697,0.0696,0.0682,0.068,0.0679,0,0,0,0,0,0,0.0562,0.0582,0.0588,0.0595,0.0606,0.0623,0.0624,0.0632,0.0641,0.0642,0.0657,0.066,0.0665,0.0673,0.0674,0.0681,0.0688,0.0688,0.0676,0.0675,0.0673,0.0671,0.0687,0,0,0,0,0,0.0559,0.0567,0.0584,0.0588,0.0593,0.0608,0.0613,0.0621,0.0633,0.0637,0.0648,0.0658,0.0666,0.0671,0.0679,0.0683,0.0686,0.0683,0.0682,0.068,0.068,0.0682,0.0681,0.0695,0.0695,0.0695,0,0,0.0554,0.0566,0.057,0.0585,0.0594,0.0601,0.0611,0.0618,0.0623,0.0638,0.0645,0.0653,0.0665,0.067,0.0673,0.0677,0.0677,0.068,0.0679,0.0679,0.0681,0.068,0.0679,0.0694,0.0695,0.0695,0,0,0.0547,0.0557,0.0562,0.057,0.0583,0.0593,0.0594,0.0609,0.0615,0.0623,0.0634,0.0639,0.0653,0.0661,0.0666,0.0661,0.0669,0.0663,0.0656,0.0657,0.0656,0.0655,0.0653,0.0652,0.0663,0.0663,0.0663,0,0.0539,0.055,0.0563,0.0569,0.0575,0.0588,0.0592,0.06,0.0615,0.0619,0.0623,0.0639,0.0648,0.0655,0.0654,0.0658,0.0659,0.0662,0.0655,0.0655,0.0654,0.0651,0.065,0.0662,0.0662,0.0663,0.0663,0,0.0538,0.0545,0.0547,0.0561,0.0568,0.0573,0.0586,0.0591,0.0598,0.0607,0.0614,0.0625,0.0635,0.0637,0.0645,0.0645,0.0647,0.0653,0.066,0.0651,0.0649,0.0649,0.0661,0.0662,0.0662,0.0662,0,0,0.0523,0.0543,0.0544,0.055,0.0565,0.057,0.0575,0.0586,0.0589,0.0598,0.0602,0.0613,0.0618,0.0625,0.0633,0.0635,0.0629,0.0641,0.0641,0.0637,0.0628,0.0623,0.0622,0.0634,0.0634,0.0634,0.0627,0,0.0518,0.0528,0.054,0.0546,0.0552,0.0564,0.0568,0.0577,0.0585,0.0591,0.06,0.0607,0.0614,0.0618,0.062,0.0629,0.0627,0.063,0.0637,0.0637,0.0633,0.0621,0.0616,0.0609,0.0626,0.0626,0.0626,0,0.0515,0.0523,0.053,0.0543,0.0546,0.055,0.0559,0.0565,0.0575,0.0581,0.0587,0.0596,0.0601,0.0607,0.0613,0.0615,0.0619,0.0623,0.0623,0.0624,0.0631,0.0621,0.0607,0.0606,0.0625,0.0625,0.0625,0,0.0502,0.0515,0.0521,0.0525,0.0541,0.0543,0.055,0.056,0.0565,0.0573,0.0576,0.0585,0.0589,0.0595,0.0606,0.0609,0.0611,0.0618,0.0615,0.0614,0.0615,0.0614,0.0601,0.0617,0.0617,0.0617,0.0618,0,0.0496,0.0499,0.0515,0.0518,0.0522,0.0534,0.0537,0.0545,0.0554,0.0558,0.0569,0.0573,0.0586,0.0591,0.06,0.0603,0.0605,0.061,0.0612,0.0608,0.0608,0.0611,0.0611,0.0617,0.0617,0.0617,0.0617,0,0.0483,0.0494,0.05,0.0514,0.0517,0.0519,0.0531,0.0534,0.0542,0.0547,0.0549,0.0562,0.0568,0.0579,0.0589,0.0595,0.0596,0.06,0.0593,0.0594,0.059,0.059,0.0578,0.0576,0.0594,0.0594,0.0594,0,0.0478,0.048,0.0494,0.0498,0.0504,0.051,0.0514,0.0526,0.0531,0.0542,0.0543,0.055,0.0557,0.0566,0.0576,0.0583,0.0587,0.0582,0.0588,0.0584,0.0586,0.0585,0.0585,0.058,0.058,0.058,0.058,0,0.0467,0.0472,0.0479,0.0487,0.0492,0.0499,0.0507,0.0509,0.0522,0.0526,0.0533,0.0538,0.0547,0.0554,0.0562,0.0568,0.0576,0.0578,0.0577,0.0574,0.0569,0.0571,0.0589,0.0578,0.0578,0.0578,0.0578,0.0578,0.0458,0.0461,0.047,0.0477,0.0483,0.049,0.0493,0.0501,0.0507,0.0515,0.0522,0.0527,0.0536,0.0548,0.0554,0.0558,0.0562,0.0561,0.0561,0.056,0.0559,0.0569,0.056,0.056,0.056,0.056,0.056,0,0.0448,0.0454,0.046,0.047,0.0475,0.0481,0.0489,0.0493,0.0498,0.0505,0.0511,0.0518,0.0524,0.0534,0.0541,0.0542,0.0546,0.0543,0.0543,0.0544,0.0556,0.0555,0.054,0.054,0.054,0.054,0.054,0.054,0.0443,0.0447,0.0453,0.046,0.0467,0.0472,0.0476,0.0482,0.0488,0.0495,0.05,0.0506,0.0514,0.0521,0.0527,0.0529,0.0531,0.0528,0.0531,0.0542,0.0544,0.0545,0.0545,0.0528,0.0528,0.0519,0.0519,0.0519]},{"header":{"parameterUnit":"m.s-1","parameterCategory":1,"la1":30.2991,"la2":30.254,"lo1":-89.0895,"lo2":-89.0444,"dy":0.0017,"dx":0.0017,"nx":28,"ny":28,"refTime":"2025-04-16T21:00:00:Z","depth":0,"parameterNumber":3,"parameterNumberName":"V-component_of_WINDS"},"data":[0,0,0,0,0,0,0,0,0,0,0,0,0,0,0,0,0,0,0,0,0,0,0,0,0,0,0,0,0,0,0,0,0,0,0,0,0,0,0,0,0,0,0,0,0,0,0,0,0,0,0,0,0,0,0,0,0,0,3.1255,3.1254,0,3.1221,3.1221,3.122,3.1144,3.1143,3.1141,3.114,3.1105,3.1105,3.1106,0,0,0,0,0,0,0,0,0,0,0,0,0,3.1252,3.1253,3.1255,3.1254,3.1254,3.1221,3.1221,3.122,3.1145,3.1143,3.1141,3.1139,3.1105,3.1105,3.1106,0,0,0,0,0,0,0,0,0,0,0,0,0,3.1239,3.1253,3.1255,3.1212,3.1208,3.1221,3.1221,3.122,3.1145,3.1143,3.114,3.1138,3.1104,3.1105,3.1106,3.1158,0,0,3.1108,3.1109,0,0,0,0,0,0,0,0,3.124,3.124,3.1219,3.1215,3.1211,3.1184,3.1207,3.1199,3.1145,3.1169,3.114,3.1137,3.1133,3.1131,3.113,3.1156,3.1154,3.1108,3.1109,3.1109,3.111,0,0,0,0,0,0,0,3.1241,3.1241,3.1241,3.1219,3.1214,3.1194,3.119,3.1205,3.1165,3.1167,3.1161,3.1158,3.113,3.113,3.1129,3.1154,3.1108,3.1109,3.111,3.111,3.1217,3.1219,0,0,0,0,0,0,3.1248,3.1242,3.1242,3.124,3.122,3.1196,3.1191,3.1195,3.1164,3.1157,3.116,3.1155,3.1129,3.1128,3.1127,3.1183,3.1109,3.111,3.111,3.1215,3.1218,3.122,0,0,0,0,0,0,3.1249,3.1249,3.1244,3.1239,3.1237,3.1199,3.1204,3.1196,3.1195,3.1159,3.1152,3.1167,3.1128,3.1126,3.115,3.1181,3.111,3.1111,3.1212,3.1216,3.1219,3.1297,0,0,0,0,0,0,3.1249,3.125,3.1269,3.1241,3.1238,3.1268,3.1206,3.1197,3.1196,3.1189,3.1163,3.1157,3.1126,3.1149,3.1151,3.1181,3.1112,3.1209,3.1213,3.1218,3.1291,3.1303,3.1312,0,0,0,0,0,3.1249,3.1293,3.1271,3.1271,3.1262,3.127,3.1268,3.1231,3.1199,3.1218,3.1195,3.1158,3.1178,3.1152,3.1153,3.1184,3.1207,3.1212,3.1217,3.1287,3.13,3.1312,0,0,0,0,0,0,3.1327,3.1289,3.1263,3.13,3.1289,3.1257,3.128,3.1247,3.1245,3.1238,3.1192,3.1187,3.1216,3.1203,3.1175,3.1231,3.1186,3.1192,3.1238,3.1251,3.1262,3.1263,3.1112,0,0,0,0,0,3.1349,3.1359,3.1325,3.136,3.1356,3.1319,3.1321,3.1293,3.128,3.1275,3.1253,3.1241,3.1244,3.1247,3.1249,3.129,3.1281,3.1311,3.1322,3.133,3.1335,3.1353,3.1365,3.1238,3.1238,3.1237,0,0,3.1393,3.1374,3.1383,3.1375,3.1363,3.1373,3.1315,3.1329,3.1336,3.1277,3.1297,3.1281,3.1264,3.1296,3.1309,3.1286,3.1369,3.1337,3.1345,3.1345,3.136,3.1372,3.1383,3.1241,3.1241,3.124,0,0,3.1479,3.1466,3.1493,3.1482,3.1464,3.1439,3.1445,3.1418,3.1405,3.1425,3.1379,3.1387,3.1394,3.1383,3.1379,3.1459,3.1423,3.1461,3.1515,3.1533,3.1543,3.1551,3.1577,3.1587,3.1466,3.1466,3.1466,0,3.1536,3.155,3.1511,3.1527,3.1524,3.147,3.1496,3.1487,3.1471,3.147,3.1444,3.145,3.1435,3.1462,3.1482,3.1481,3.1485,3.1462,3.1545,3.1553,3.156,3.1584,3.1595,3.1471,3.147,3.147,3.1469,0,3.162,3.1631,3.1654,3.1639,3.1639,3.166,3.1622,3.1627,3.16,3.1577,3.1596,3.1577,3.1572,3.1577,3.155,3.1599,3.1585,3.1553,3.1506,3.1577,3.1599,3.1608,3.1477,3.1475,3.1474,3.1473,0,0,3.1754,3.1715,3.1725,3.1716,3.1692,3.1699,3.1717,3.1711,3.1715,3.1706,3.1718,3.1725,3.1694,3.1689,3.1661,3.1677,3.1738,3.1642,3.1641,3.1658,3.1788,3.181,3.1822,3.1715,3.1717,3.1718,3.1788,0,3.1832,3.186,3.1824,3.186,3.1868,3.1816,3.1832,3.1818,3.1797,3.18,3.1777,3.1781,3.1742,3.1738,3.1752,3.1728,3.1763,3.1722,3.1724,3.1725,3.1728,3.1834,3.1858,3.1925,3.1797,3.1798,3.1799,0,3.1927,3.1921,3.1957,3.1929,3.193,3.1945,3.1936,3.194,3.1923,3.1906,3.19,3.1866,3.188,3.1837,3.1854,3.1828,3.1826,3.1815,3.1816,3.1813,3.1765,3.1831,3.1946,3.1955,3.1813,3.1812,3.1811,0,3.2017,3.2019,3.204,3.2034,3.2002,3.2013,3.2,3.1981,3.1979,3.1972,3.197,3.1964,3.1961,3.1956,3.1921,3.1893,3.1942,3.1896,3.1927,3.1928,3.1938,3.1938,3.2052,3.1942,3.1942,3.1941,3.1941,0,3.2107,3.2131,3.2079,3.2092,3.2117,3.2075,3.21,3.2082,3.2065,3.2072,3.2028,3.2036,3.199,3.1992,3.1965,3.1982,3.1982,3.1967,3.1959,3.197,3.1971,3.1967,3.1961,3.1944,3.1944,3.1943,3.1943,0,3.2212,3.2179,3.2198,3.2166,3.2158,3.2177,3.2149,3.2159,3.2135,3.2145,3.2145,3.2107,3.2107,3.2072,3.2066,3.2047,3.2075,3.206,3.2081,3.2075,3.2107,3.2103,3.2221,3.2233,3.2117,3.2118,3.2119,0,3.227,3.2287,3.2256,3.2258,3.2247,3.225,3.2248,3.2207,3.2207,3.2187,3.2199,3.2196,3.2191,3.2194,3.2165,3.2159,3.2142,3.2184,3.2141,3.215,3.2139,3.2138,3.2138,3.2192,3.2193,3.2195,3.2196,0,3.2376,3.2359,3.2357,3.235,3.2348,3.234,3.2329,3.2333,3.2288,3.229,3.2289,3.2286,3.2278,3.2275,3.2263,3.2249,3.2214,3.221,3.2216,3.2226,3.2236,3.2228,3.2103,3.2207,3.2205,3.2205,3.2204,3.2204,3.2458,3.2469,3.2448,3.2448,3.2435,3.2426,3.2432,3.2409,3.2408,3.2399,3.2375,3.2378,3.2358,3.2339,3.2327,3.2328,3.2307,3.2317,3.2319,3.2322,3.2327,3.2238,3.2326,3.2326,3.2326,3.2325,3.2325,0,3.2559,3.2543,3.2543,3.2529,3.2528,3.2496,3.2482,3.2483,3.2486,3.247,3.2466,3.2464,3.246,3.2431,3.2424,3.243,3.2413,3.2429,3.2427,3.2423,3.2347,3.2341,3.2442,3.2442,3.2442,3.2442,3.2442,3.2442,3.2612,3.2628,3.2608,3.2618,3.2601,3.2604,3.2598,3.2588,3.2576,3.2576,3.2572,3.2553,3.2531,3.2522,3.2516,3.2507,3.2505,3.2526,3.2512,3.2441,3.2429,3.2418,3.2412,3.2526,3.2526,3.2587,3.2588,3.2588]}]]